Weather History for Moose Lake, MN

Change the Weather History Date:

Saturday, June 22, 2013

  Actual Average Record
Temperature  
Mean Temperature 54 °F -  
Max Temperature 57 °F 76 °F 89 °F (2002)
Min Temperature 51 °F 49 °F 37 °F (1959)
Degree Days  
Heating Degree Days 11    
Growing Degree Days 4 (Base 50)    
Moisture  
Dew Point 53 °F    
Average Humidity 96    
Maximum Humidity 100    
Minimum Humidity 88    
Precipitation  
Precipitation 0.00 in - - ()
Sea Level Pressure  
Sea Level Pressure 29.97 in    
Wind  
Wind Speed 6 mph (NE)    
Max Wind Speed 12 mph    
Max Gust Speed 18 mph    
Visibility 4 miles    
Events Fog , Rain , Thunderstorm    
Averages and records for this station are not official NWS values.
T = Trace of Precipitation, MM = Missing Value Source: NWS Daily Summary

Daily Weather History Graph

Daily Weather History Graph

Search for Another Location

Airport:

Trip Planner

Search our weather history database for the weather conditions in past years. The results will help you decide how hot, cold, wet, or windy it might be!

Date:

Astronomy

Jun. 22, 2013 Rise Set
Actual Time 5:18 AM CDT 9:07 PM CDT
Civil Twilight 4:39 AM CDT 9:46 PM CDT
Nautical Twilight 3:46 AM CDT 10:39 PM CDT
Astronomical Twilight 2:30 AM CDT 11:56 PM CDT
Moon 8:18 PM CDT (6/22) 4:36 AM CDT (6/22)
Length of Visible Light 17h 07m
Length of Day
15h 48m
Waxing Gibbous, 99% of the Moon is Illuminated
Jun 22
Waxing Gibbous
Jun 23
Full
Jun 29
Last Quarter
Jul 8
New
Jul 15
First Quarter

Hourly Weather History & Observations

Time (CDT) Temp. Dew Point Humidity Pressure Visibility Wind Dir Wind Speed Gust Speed Precip Events Conditions
12:08 AM 57.2 °F 55.4 °F 94% 29.94 in 7.0 mi NNE 9.2 mph - N/A Thunderstorm Overcast
12:28 AM 55.4 °F 53.6 °F 94% 29.96 in 7.0 mi NNE 5.8 mph - N/A   Overcast
12:48 AM 55.4 °F 53.6 °F 94% 29.94 in 7.0 mi ENE 6.9 mph - N/A   Overcast
1:08 AM 55.4 °F 53.6 °F 94% 29.94 in 3.0 mi NE 8.1 mph - N/A   Overcast
1:28 AM 55.4 °F 53.6 °F 94% 29.94 in 2.5 mi NE 5.8 mph - N/A   Overcast
1:48 AM 55.4 °F 55.4 °F 100% 29.92 in 2.0 mi NNE 11.5 mph - N/A   Overcast
2:08 AM 55.4 °F 55.4 °F 100% 29.94 in 3.0 mi NE 6.9 mph - N/A   Overcast
2:28 AM 55.4 °F 55.4 °F 100% 29.99 in 5.0 mi Calm Calm - N/A   Overcast
2:48 AM 55.4 °F 55.4 °F 100% 30.01 in 3.0 mi ESE 4.6 mph - N/A   Overcast
3:08 AM 55.4 °F 55.4 °F 100% 30.02 in 2.0 mi East 4.6 mph - N/A   Overcast
3:28 AM 55.4 °F 53.6 °F 94% 30.01 in 1.2 mi NE 8.1 mph - N/A   Overcast
3:48 AM 55.4 °F 53.6 °F 94% 30.01 in 1.5 mi NE 5.8 mph - N/A   Overcast
4:08 AM 55.4 °F 53.6 °F 94% 30.00 in 2.0 mi NE 6.9 mph - N/A   Overcast
4:28 AM 55.4 °F 53.6 °F 94% 30.00 in 2.5 mi ENE 5.8 mph - N/A   Overcast
4:48 AM 53.6 °F 53.6 °F 100% 30.01 in 3.0 mi ENE 5.8 mph - N/A   Overcast
5:08 AM 53.6 °F 53.6 °F 100% 30.01 in 4.0 mi NE 3.5 mph - N/A   Overcast
5:28 AM 53.6 °F 53.6 °F 100% 30.01 in 3.0 mi NE 4.6 mph - N/A   Overcast
5:48 AM 53.6 °F 53.6 °F 100% 30.01 in 1.8 mi Calm Calm - N/A   Overcast
6:08 AM 53.6 °F 51.8 °F 94% 30.01 in 1.5 mi ENE 3.5 mph - N/A   Overcast
6:28 AM 53.6 °F 51.8 °F 94% 30.01 in 1.0 mi ENE 4.6 mph - N/A   Overcast
6:48 AM 53.6 °F 51.8 °F 94% 30.01 in 0.8 mi ENE 4.6 mph - N/A   Overcast
7:08 AM 53.6 °F 51.8 °F 94% 29.99 in 0.8 mi NE 5.8 mph - N/A   Overcast
7:28 AM 51.8 °F 51.8 °F 100% 29.98 in 0.5 mi NE 6.9 mph - N/A Fog Fog
7:48 AM 53.6 °F 51.8 °F 94% 29.98 in 0.8 mi NE 8.1 mph - N/A   Overcast
8:08 AM 51.8 °F 51.8 °F 100% 29.97 in 0.8 mi ENE 5.8 mph - N/A   Overcast
8:28 AM 53.6 °F 51.8 °F 94% 29.95 in 1.0 mi ENE 10.4 mph - N/A   Overcast
8:48 AM 53.6 °F 51.8 °F 94% 29.91 in 1.2 mi NE 10.4 mph 18.4 mph N/A   Overcast
9:08 AM 53.6 °F 51.8 °F 94% 29.94 in 1.8 mi ENE 6.9 mph - N/A   Overcast
9:28 AM 53.6 °F 53.6 °F 100% 30.01 in 5.0 mi ESE 6.9 mph - N/A   Overcast
9:48 AM 53.6 °F 53.6 °F 100% 30.04 in 7.0 mi SE 5.8 mph - N/A   Overcast
10:08 AM 53.6 °F 51.8 °F 94% 30.03 in 7.0 mi ENE 5.8 mph - N/A   Overcast
10:28 AM 53.6 °F 51.8 °F 94% 30.01 in 4.0 mi NE 8.1 mph - N/A   Overcast
10:48 AM 53.6 °F 51.8 °F 94% 29.99 in 4.0 mi NNE 11.5 mph - N/A   Overcast
11:08 AM 53.6 °F 51.8 °F 94% 30.01 in 7.0 mi East 4.6 mph - N/A   Overcast
11:28 AM 53.6 °F 51.8 °F 94% 30.02 in 10.0 mi East 3.5 mph - N/A   Overcast
11:48 AM 53.6 °F 51.8 °F 94% 30.01 in 7.0 mi ENE 5.8 mph - N/A   Overcast
12:08 PM 53.6 °F 51.8 °F 94% 30.01 in 7.0 mi Calm Calm - N/A   Overcast
12:28 PM 53.6 °F 51.8 °F 94% 30.01 in 2.5 mi NE 5.8 mph - N/A Rain Light Rain
12:48 PM 53.6 °F 51.8 °F 94% 29.99 in 3.0 mi NE 4.6 mph - N/A   Overcast
1:08 PM 53.6 °F 53.6 °F 100% 29.97 in 4.0 mi NE 9.2 mph - N/A   Overcast
1:28 PM 53.6 °F 53.6 °F 100% 29.98 in 5.0 mi NE 5.8 mph - N/A   Overcast
1:48 PM 55.4 °F 53.6 °F 94% 29.97 in 5.0 mi ENE 4.6 mph - N/A   Overcast
2:08 PM 55.4 °F 53.6 °F 94% 29.97 in 5.0 mi ENE 6.9 mph - N/A   Overcast
2:28 PM 55.4 °F 55.4 °F 100% 29.97 in 5.0 mi ENE 6.9 mph - N/A   Overcast
2:48 PM 57.2 °F 55.4 °F 94% 29.96 in 5.0 mi ENE 5.8 mph - N/A   Overcast
3:08 PM 57.2 °F 55.4 °F 94% 29.96 in 7.0 mi ENE 8.1 mph - N/A   Overcast
3:28 PM 57.2 °F 55.4 °F 94% 29.97 in 7.0 mi Calm Calm - N/A   Overcast
3:48 PM 57.2 °F 55.4 °F 94% 29.97 in 7.0 mi Calm Calm - N/A   Overcast
4:08 PM 55.4 °F 53.6 °F 94% 29.97 in 7.0 mi ENE 4.6 mph - N/A   Overcast
4:28 PM 55.4 °F 53.6 °F 94% 29.97 in 7.0 mi NE 3.5 mph - N/A Rain Light Rain
4:48 PM 55.4 °F 53.6 °F 94% 29.96 in 5.0 mi NE 3.5 mph - N/A   Light Drizzle
5:08 PM 55.4 °F 55.4 °F 100% 29.96 in 5.0 mi NE 3.5 mph - N/A   Overcast
5:28 PM 57.2 °F 55.4 °F 94% 29.96 in 7.0 mi NNE 6.9 mph - N/A   Overcast
5:48 PM 57.2 °F 55.4 °F 94% 29.96 in 7.0 mi NE 3.5 mph - N/A   Overcast
6:08 PM 57.2 °F 55.4 °F 94% 29.95 in 7.0 mi NE 5.8 mph - N/A   Overcast
6:28 PM 55.4 °F 53.6 °F 94% 29.93 in 10.0 mi ENE 8.1 mph - N/A   Overcast
6:48 PM 55.4 °F 51.8 °F 88% 29.93 in 10.0 mi ENE 5.8 mph - N/A   Overcast
7:08 PM 53.6 °F 51.8 °F 94% 29.93 in 10.0 mi NE 5.8 mph - N/A   Overcast
7:28 PM 53.6 °F 51.8 °F 94% 29.94 in 10.0 mi ENE 5.8 mph - N/A   Overcast
7:48 PM 53.6 °F 51.8 °F 94% 29.93 in 7.0 mi NE 5.8 mph - N/A   Overcast
8:08 PM 53.6 °F 51.8 °F 94% 29.93 in 4.0 mi NE 4.6 mph - N/A   Overcast
8:28 PM 51.8 °F 51.8 °F 100% 29.93 in 2.5 mi ENE 5.8 mph - N/A   Overcast
8:48 PM 51.8 °F 51.8 °F 100% 29.92 in 3.0 mi NE 5.8 mph - N/A   Overcast
9:08 PM 51.8 °F 51.8 °F 100% 29.91 in 1.0 mi NE 4.6 mph - N/A   Overcast
9:28 PM 51.8 °F 51.8 °F 100% 29.91 in 0.8 mi ENE 6.9 mph - N/A   Overcast
9:48 PM 51.8 °F 51.8 °F 100% 29.90 in 0.8 mi NE 5.8 mph - N/A   Overcast
10:08 PM 51.8 °F 51.8 °F 100% 29.91 in 1.0 mi NE 3.5 mph - N/A   Overcast
10:28 PM 51.8 °F 51.8 °F 100% 29.92 in 0.8 mi NE 5.8 mph - N/A   Overcast
10:48 PM 51.8 °F 51.8 °F 100% 29.93 in 0.8 mi ENE 3.5 mph - N/A   Overcast
11:08 PM 51.8 °F 50.0 °F 94% 29.92 in 0.8 mi NE 4.6 mph - N/A   Overcast
11:28 PM 51.8 °F 50.0 °F 94% 29.91 in 0.8 mi NE 4.6 mph - N/A   Overcast
11:48 PM 51.8 °F 50.0 °F 94% 29.91 in 0.8 mi NE 6.9 mph - N/A   Overcast